This demonstration page uses our WeatherBlox Daily Observations layout. Learn more.

Left ArrowRight Arrow

39.01783, -85.05884

Hourly Observations for November 6, 2018

Temp ( °F °C ) Dew Point ( °F °C ) Humidity (%) Winds ( mph kmh ) Pressure ( in mb ) Visibility ( mi km ) Precip ( " mm )
12:52 am 00:52 Cloudy with Rain 57 13.9 57 13.9 100 100 SSE 14 22 29.60 1002 6 10 0.19 4.83
1:52 am 01:52 Cloudy 58 14.4 58 14.4 100 100 S 17 28 29.61 1003 10 16 0.03 0.76
2:52 am 02:52 Cloudy 59 15 57 13.9 93 93 S 15 24 29.60 1002 10 16 0.01 0.25
3:37 am 03:37 Cloudy 59 15 57 13.9 93 93 SSW 12 19 29.59 1002 10 16 0.00 0.03
3:43 am 03:43 Cloudy 59 15 57 13.9 93 93 SSW 13 20 29.59 1002 10 16 0.00 0.03
3:52 am 03:52 Cloudy 59 15 57 13.9 93 93 SSW 14 22 29.61 1003 10 16 0.00 0.03
4:52 am 04:52 Cloudy 59 15 56 13.3 90 90 WSW 13 20 29.65 1004 10 16 0.00 0.00
5:20 am 05:20 Partly Cloudy 57 13.9 52 11.1 83 83 WSW 13 20 29.68 1005 10 16 0.00 0.00
5:52 am 05:52 Mostly Clear 56 13.3 50 10 81 81 WSW 16 26 29.68 1005 10 16 0.00 0.00
6:52 am 06:52 Partly Cloudy 54 12.2 48 8.9 80 80 WSW 13 20 29.71 1006 10 16 0.00 0.00
7:52 am 07:52 Mostly Sunny 53 11.7 47 8.3 80 80 WSW 12 19 29.76 1008 10 16 0.00 0.00
8:52 am 08:52 Partly Cloudy 54 12.2 48 8.9 80 80 SW 13 20 29.78 1008 10 16 0.00 0.00
9:33 am 09:33 Mostly Cloudy 55 12.8 47 8.3 74 74 SW 18 30 29.80 1009 10 16 0.00 0.00
9:52 am 09:52 Cloudy 55 12.8 47 8.3 74 74 WSW 17 28 29.80 1009 10 16 0.00 0.00
10:35 am 10:35 Mostly Cloudy 55 12.8 45 7.2 69 69 SW 23 37 29.83 1010 10 16 0.00 0.00
10:52 am 10:52 Mostly Cloudy 55 12.8 45 7.2 69 69 WSW 15 24 29.82 1010 10 16 0.00 0.00
11:52 am 11:52 Mostly Cloudy 58 14.4 45 7.2 62 62 SW 20 31 29.83 1010 10 16 0.00 0.00
12:52 pm 12:52 Mostly Cloudy 59 15 43 6.1 56 56 SW 24 39 29.83 1010 10 16 0.00 0.00
1:52 pm 13:52 Mostly Sunny 60 15.6 43 6.1 53 53 SW 12 19 29.84 1011 10 16 0.00 0.00
2:52 pm 14:52 Mostly Sunny 59 15 41 5 51 51 WSW 14 22 29.86 1011 10 16 0.00 0.00
3:52 pm 15:52 Sunny 60 15.6 38 3.3 44 44 SW 18 30 29.88 1012 10 16 0.00 0.00
4:52 pm 16:52 Sunny 59 15 37 2.8 44 44 WSW 15 24 29.90 1013 10 16 0.00 0.00
5:52 pm 17:52 Clear 55 12.8 38 3.3 53 53 SW 9 15 29.91 1013 10 16 0.00 0.00
6:52 pm 18:52 Clear 53 11.7 38 3.3 57 57 SW 9 15 29.95 1014 10 16 0.00 0.00
7:52 pm 19:52 Mostly Clear 52 11.1 38 3.3 59 59 SW 8 13 29.96 1015 10 16 0.00 0.00
8:52 pm 20:52 Clear 52 11.1 39 3.9 61 61 WSW 7 11 29.98 1015 10 16 0.00 0.00
9:52 pm 21:52 Mostly Clear 52 11.1 39 3.9 61 61 WSW 9 15 30.01 1016 10 16 0.00 0.00
10:52 pm 22:52 Partly Cloudy 51 10.6 39 3.9 64 64 W 9 15 30.02 1017 10 16 0.00 0.00
11:52 pm 23:52 Mostly Cloudy 51 10.6 39 3.9 64 64 WSW 9 15 30.03 1017 10 16 0.00 0.00

Powered by AerisWeather